• In Netherlands
  • List of Countries
  • For 7 days
  • Water Temperature
  • Satellite Maps
  • Weather Map
  • Weather Widgets
  • user-avatar
    Login

    Hourly Weather Amstelveen

    Today, 19 October, Friday

    Time Temperature Precipitation Wind Pressure Humidity
    00:00 +7°C° 0 mm 4 mps 769 mmHg 88%
    01:00 +7°C° 0 mm 4 mps 769 mmHg 89%
    02:00 +7°C° 0 mm 3 mps 769 mmHg 89%
    03:00 +7°C° 0 mm 3 mps 769 mmHg 90%
    04:00 +7°C° 0 mm 3 mps 769 mmHg 90%
    05:00 +7°C° 0 mm 3 mps 769 mmHg 91%
    06:00 +5°C° 0 mm 3 mps 769 mmHg 91%
    07:00 +8°C° 0 mm 3 mps 769 mmHg 86%
    08:00 +9°C° 0 mm 3 mps 769 mmHg 81%
    09:00 +11°C° 0 mm 3 mps 769 mmHg 76%
    10:00 +13°C° 0 mm 2 mps 769 mmHg 71%
    11:00 +14°C° 0 mm 2 mps 769 mmHg 66%
    12:00 +16°C° 0 mm 2 mps 769 mmHg 61%
    13:00 +16°C° 0 mm 2 mps 769 mmHg 61%
    14:00 +16°C° 0 mm 2 mps 769 mmHg 60%
    15:00 +16°C° 0 mm 2 mps 769 mmHg 59%
    16:00 +14°C° 0 mm 2 mps 769 mmHg 66%
    17:00 +13°C° 0 mm 2 mps 770 mmHg 72%
    18:00 +10°C° 0 mm 2 mps 770 mmHg 78%
    19:00 +9°C° 0 mm 2 mps 770 mmHg 80%
    20:00 +9°C° 0 mm 2 mps 770 mmHg 82%
    21:00 +8°C° 0 mm 2 mps 771 mmHg 84%
    22:00 +9°C° 0 mm 1 mps 771 mmHg 84%
    23:00 +8°C° 0 mm 1 mps 771 mmHg 85%

    Tomorrow, 20 October, Saturday

    Time Temperature Precipitation Wind Pressure Humidity
    00:00 +8°C° 0 mm 1 mps 771 mmHg 86%
    01:00 +8°C° 0 mm 1 mps 771 mmHg 86%
    02:00 +8°C° 0 mm 1 mps 771 mmHg 86%
    03:00 +7°C° 0 mm 1 mps 772 mmHg 86%
    04:00 +7°C° 0 mm 1 mps 772 mmHg 85%
    05:00 +7°C° 0 mm 1 mps 772 mmHg 85%
    06:00 +7°C° 0 mm 1 mps 773 mmHg 85%
    07:00 +9°C° 0 mm 1 mps 773 mmHg 78%
    08:00 +10°C° 0 mm 1 mps 773 mmHg 71%
    09:00 +12°C° 0 mm 2 mps 773 mmHg 64%
    10:00 +14°C° 0 mm 2 mps 773 mmHg 61%
    11:00 +15°C° 0 mm 2 mps 774 mmHg 57%
    12:00 +16°C° 0 mm 1 mps 774 mmHg 54%
    13:00 +16°C° 0 mm 1 mps 774 mmHg 55%
    14:00 +16°C° 0 mm 1 mps 773 mmHg 56%
    15:00 +16°C° 0 mm 1 mps 773 mmHg 58%
    16:00 +15°C° 0 mm 1 mps 773 mmHg 65%
    17:00 +13°C° 0 mm 1 mps 773 mmHg 72%
    18:00 +11°C° 0 mm 1 mps 773 mmHg 79%
    19:00 +11°C° 0 mm 1 mps 773 mmHg 80%
    20:00 +11°C° 0 mm 1 mps 774 mmHg 82%
    21:00 +10°C° 0 mm 1 mps 774 mmHg 83%
    22:00 +10°C° 0 mm 1 mps 773 mmHg 84%
    23:00 +10°C° 0 mm 1 mps 773 mmHg 85%

    Day after tomorrow, 21 October, Sunday

    Time Temperature Precipitation Wind Pressure Humidity
    00:00 +9°C° 0 mm 2 mps 773 mmHg 85%
    01:00 +8°C° 0 mm 2 mps 773 mmHg 86%
    02:00 +8°C° 0 mm 2 mps 773 mmHg 86%
    03:00 +8°C° 0 mm 3 mps 772 mmHg 86%
    04:00 +8°C° 0 mm 3 mps 772 mmHg 86%
    05:00 +8°C° 0 mm 3 mps 772 mmHg 86%
    06:00 +7°C° 0 mm 3 mps 772 mmHg 86%
    07:00 +9°C° 0 mm 3 mps 772 mmHg 80%
    08:00 +10°C° 0 mm 3 mps 772 mmHg 74%
    09:00 +12°C° 0 mm 3 mps 771 mmHg 68%
    10:00 +13°C° 0 mm 3 mps 771 mmHg 63%
    11:00 +16°C° 0 mm 3 mps 771 mmHg 59%
    12:00 +17°C° 0 mm 3 mps 771 mmHg 54%
    13:00 +17°C° 0 mm 3 mps 770 mmHg 55%
    14:00 +17°C° 0 mm 3 mps 770 mmHg 55%
    15:00 +17°C° 0 mm 3 mps 770 mmHg 56%
    16:00 +16°C° 0 mm 3 mps 770 mmHg 62%
    17:00 +13°C° 0 mm 3 mps 769 mmHg 68%
    18:00 +11°C° 0 mm 3 mps 769 mmHg 73%
    19:00 +11°C° 0 mm 3 mps 770 mmHg 76%
    20:00 +11°C° 0 mm 3 mps 770 mmHg 79%
    21:00 +10°C° 0 mm 3 mps 770 mmHg 83%
    22:00 +11°C° 0.2 mm 4 mps 770 mmHg 84%
    23:00 +12°C° 0.2 mm 5 mps 770 mmHg 86%

    22 October, Monday

    Time Temperature Precipitation Wind Pressure Humidity
    00:00 +11°C° 0.2 mm 6 mps 770 mmHg 87%
    01:00 +11°C° 0.2 mm 6 mps 771 mmHg 86%
    02:00 +11°C° 0.2 mm 7 mps 771 mmHg 85%
    03:00 +11°C° 0.2 mm 8 mps 771 mmHg 85%
    04:00 +11°C° 0 mm 7 mps 772 mmHg 82%
    05:00 +10°C° 0 mm 7 mps 773 mmHg 79%
    06:00 +9°C° 0 mm 6 mps 773 mmHg 76%
    07:00 +10°C° 0 mm 6 mps 774 mmHg 71%
    08:00 +10°C° 0 mm 6 mps 774 mmHg 66%
    09:00 +11°C° 0 mm 6 mps 775 mmHg 62%
    10:00 +11°C° 0 mm 6 mps 775 mmHg 57%
    11:00 +13°C° 0 mm 6 mps 775 mmHg 52%
    12:00 +13°C° 0 mm 5 mps 776 mmHg 47%
    13:00 +13°C° 0 mm 5 mps 775 mmHg 48%
    14:00 +12°C° 0 mm 5 mps 775 mmHg 50%
    15:00 +12°C° 0 mm 5 mps 775 mmHg 52%
    16:00 +10°C° 0 mm 5 mps 775 mmHg 54%
    17:00 +10°C° 0 mm 5 mps 775 mmHg 56%
    18:00 +10°C° 0 mm 4 mps 775 mmHg 58%
    19:00 +9°C° 0 mm 5 mps 775 mmHg 60%
    20:00 +9°C° 0 mm 5 mps 775 mmHg 61%
    21:00 +9°C° 0 mm 5 mps 775 mmHg 63%
    22:00 +9°C° 0.1 mm 5 mps 775 mmHg 66%
    23:00 +9°C° 0.1 mm 6 mps 774 mmHg 69%

    23 October, Tuesday

    Time Temperature Precipitation Wind Pressure Humidity
    00:00 +9°C° 0.1 mm 6 mps 773 mmHg 72%
    01:00 +10°C° 0.3 mm 6 mps 773 mmHg 76%
    02:00 +10°C° 0.3 mm 7 mps 772 mmHg 79%
    03:00 +10°C° 0.3 mm 7 mps 772 mmHg 83%
    04:00 +11°C° 0.3 mm 7 mps 772 mmHg 84%
    05:00 +11°C° 0.3 mm 7 mps 772 mmHg 85%
    06:00 +11°C° 0.3 mm 7 mps 771 mmHg 86%
    07:00 +11°C° 0.2 mm 6 mps 772 mmHg 84%
    08:00 +11°C° 0.2 mm 6 mps 772 mmHg 83%
    09:00 +13°C° 0.2 mm 6 mps 772 mmHg 82%
    10:00 +13°C° 0.1 mm 6 mps 772 mmHg 78%
    11:00 +14°C° 0.1 mm 7 mps 772 mmHg 74%
    12:00 +15°C° 0.1 mm 7 mps 772 mmHg 70%
    13:00 +14°C° 0 mm 7 mps 772 mmHg 70%
    14:00 +14°C° 0 mm 6 mps 772 mmHg 71%
    15:00 +13°C° 0 mm 6 mps 772 mmHg 71%
    16:00 +13°C° 0 mm 6 mps 772 mmHg 74%
    17:00 +11°C° 0 mm 6 mps 772 mmHg 78%
    18:00 +11°C° 0 mm 7 mps 772 mmHg 82%
    19:00 +11°C° 0 mm 7 mps 772 mmHg 81%
    20:00 +11°C° 0 mm 7 mps 772 mmHg 81%
    21:00 +12°C° 0 mm 7 mps 772 mmHg 81%
    22:00 +12°C° 0 mm 7 mps 772 mmHg 80%
    23:00 +13°C° 0 mm 6 mps 772 mmHg 79%

    24 October, Wednesday

    Time Temperature Precipitation Wind Pressure Humidity
    00:00 +13°C° 0 mm 6 mps 771 mmHg 78%
    01:00 +11°C° 0 mm 6 mps 771 mmHg 80%
    02:00 +11°C° 0 mm 6 mps 771 mmHg 81%
    03:00 +11°C° 0 mm 6 mps 771 mmHg 83%
    04:00 +11°C° 0 mm 6 mps 771 mmHg 84%
    05:00 +11°C° 0 mm 6 mps 771 mmHg 85%
    06:00 +13°C° 0 mm 6 mps 771 mmHg 85%
    07:00 +13°C° 0 mm 6 mps 771 mmHg 85%
    08:00 +14°C° 0 mm 6 mps 771 mmHg 85%
    09:00 +14°C° 0 mm 6 mps 772 mmHg 84%
    10:00 +14°C° 0.1 mm 6 mps 772 mmHg 83%
    11:00 +14°C° 0.1 mm 6 mps 772 mmHg 83%
    12:00 +15°C° 0.1 mm 6 mps 772 mmHg 82%
    13:00 +15°C° 0 mm 6 mps 772 mmHg 82%
    14:00 +14°C° 0 mm 6 mps 771 mmHg 81%
    15:00 +14°C° 0 mm 6 mps 771 mmHg 80%
    16:00 +14°C° 0 mm 6 mps 772 mmHg 79%
    17:00 +14°C° 0 mm 6 mps 772 mmHg 78%
    18:00 +14°C° 0 mm 6 mps 772 mmHg 77%
    19:00 +13°C° 0 mm 5 mps 772 mmHg 77%
    20:00 +13°C° 0 mm 5 mps 772 mmHg 77%
    21:00 +13°C° 0 mm 5 mps 773 mmHg 78%
    22:00 +12°C° 0 mm 4 mps 772 mmHg 77%
    23:00 +12°C° 0 mm 4 mps 772 mmHg 76%
    Show more